Location: Marstown
(39.5056°N, 77.0820°W)
Time: 23:57:14
(UTC-05:00)

OTV 5 (USA 277) - Visible Passes

Search period start: 18 January 2019 00:00
Search period end: 28 January 2019 00:00
Orbit: 339 x 349 km, 54.5° (Epoch: 15 January)

Date Brightness Start Highest point End Pass type
(mag) Time Alt. Az. Time Alt. Az. Time Alt. Az.
23 Jan ? 06:48:35 10° S 06:51:06 27° SE 06:53:39 10° ENE visible
25 Jan ? 06:01:04 10° S 06:03:33 26° SE 06:06:03 10° ENE visible
26 Jan ? 06:24:12 10° SW 06:27:05 77° NW 06:30:01 10° NE visible
27 Jan ? 05:16:17 24° ESE 05:16:17 24° ESE 05:18:27 10° ENE visible
27 Jan ? 06:48:25 10° W 06:50:52 24° NW 06:53:19 10° NNE visible
